Regional Weather Roundup
Issued by NWS

Home | Current Version | Previous Version | Text Only | Print | Product List | Glossary Off
Versions: 1 2 3 4 5 6 7 8 9 10 11 12 13 14 15 16 17 18 19 20 21 22 23 24 25 26 27 28 29 30 31 32 33 34 35 36 37 38 39 40 41 42 43 44 45 46 47 48 49 50

000
ASUS43 KDTX 302010
RWRMI
MICHIGAN HOURLY REGIONAL WEATHER ROUNDUP
NATIONAL WEATHER SERVICE DETROIT/PONTIAC MI
400 PM EDT THU OCT 30 2014

NOTE: "FAIR" INDICATES FEW OR NO CLOUDS BELOW 12,000 FEET WITH NO
SIGNIFICANT WEATHER AND/OR OBSTRUCTION TO VISIBILITY.

MIZ047>049-052>055-059>063-066>070-074>076-081>083-302100-
SOUTHEAST LOWER MICHIGAN

CITY           SKY/WX    TMP DP  RH WIND       PRES   REMARKS
ADRIAN         PTSUNNY   49  35  58 VRB6      30.08F
ALMA           CLOUDY    49  37  63 SW6       30.05S
ANN ARBOR      CLOUDY    48  33  56 SW8       30.07F
BAD AXE        CLOUDY    46  37  71 W7        30.06F
DETROIT CITY   CLOUDY    52  33  48 NW3       30.07F
DETROIT        CLOUDY    49  34  56 SW7       30.08F
FLINT          CLOUDY    50  36  58 SW6       30.06F
GROSSE ILE     CLOUDY    50  34  53 CALM      30.07S
HILLSDALE      CLOUDY    48  35  60 W5        30.06F
HOWELL         CLOUDY    47  35  61 SW5       30.06S

CITY           SKY/WX    TMP DP  RH WIND       PRES   REMARKS
JACKSON        CLOUDY    48  35  60 SW6       30.06F
LAMBERTVILLE   CLOUDY    50  34  53 W3        30.09F
LANSING        CLOUDY    49  36  61 SW8       30.06F
LAPEER         NOT AVBL
MASON          CLOUDY    47  36  63 SW3       30.06F
MONROE         CLOUDY    48  36  61 W6        30.07F
MT. CLEMENS    CLOUDY    49  38  66 S6        30.04F
PONTIAC        PTSUNNY   48  32  53 W10       30.05F
PORT HOPE        N/A     47  36  65 SW8       30.04F
PORT HURON     CLOUDY    48  34  57 W5        30.06F
TRI CITIES     CLOUDY    50  36  58 SW8       30.05F
YPSILANTI      CLOUDY    53  35  50 SW8       30.08F
$$
MIZ043>046-050>051-056>058-064>065-071>073-077>080-302100-
SOUTHWEST LOWER MICHIGAN

CITY           SKY/WX    TMP DP  RH WIND       PRES   REMARKS
BATTLE CREEK   CLOUDY    49  35  58 SW8       30.07S
BENTON HARBOR  PTSUNNY   49  35  58 W15       30.07F
BIG RAPIDS     CLOUDY    46  41  81 W8        30.02S
COLDWATER      CLOUDY    49  37  63 SW6       30.07S
HOLLAND        CLOUDY    50  38  63 W10       30.07F
GRAND RAPIDS   CLOUDY    49  37  63 W15       30.05F
KALAMAZOO      CLOUDY    50  36  58 SW9       30.07F
MARSHALL       CLOUDY    47  35  61 MISG      30.06S
MUSKEGON       CLOUDY    49  35  58 SW12G21   30.06F
$$
MIZ016>042-302100-
NORTHERN LOWER MICHIGAN

CITY           SKY/WX    TMP DP  RH WIND       PRES   REMARKS
ALPENA         LGT RAIN  43  37  79 S5        30.02F
BEAVER ISLAND  DRIZZLE   45  41  87 SW3       29.99F
BELLAIRE       CLOUDY    46  38  73 SW5       30.01S
CADILLAC       RAIN      43  38  84 SW6       30.00F
CHARLEVOIX     DRIZZLE   44  40  87 SW5       30.02F
FRANKFORT      CLOUDY    47  37  69 W10       30.01F
GAYLORD        LGT RAIN  41  39  93 SW8       29.99F
GRAYLING       LGT RAIN  43  39  85 W7        30.01F
HARBOR SPRINGS RAIN      43  40  89 SW8       29.99F
HOUGHTON LAKE  LGT RAIN  44  38  79 W10       30.02F
MANISTEE       PTSUNNY   46  36  66 W8        30.03F
OSCODA         CLOUDY    46  37  71 SW6       30.03F
PELLSTON       LGT RAIN  44  39  82 W12G17    30.00F
TRAVERSE CITY  CLOUDY    47  35  63 W12       30.01F
$$
MIZ007>008-015-302100-
EASTERN UPPER MICHIGAN

CITY           SKY/WX    TMP DP  RH WIND       PRES   REMARKS
KINROSS        CLOUDY    43  39  87 CALM      29.99S
MACKINAC ISLAN LGT RAIN  43  39  88 SW8       29.99F
NEWBERRY       CLOUDY    42  36  79 SW6       29.97F
S. S. MARIE    CLOUDY    44  36  73 S8        29.98F
$$
MIZ004>006-011>014-085-302100-
CENTRAL UPPER MICHIGAN

CITY           SKY/WX    TMP DP  RH WIND       PRES   REMARKS
MANISTIQUE     CLOUDY    44  37  77 CALM      29.98S
ESCANABA       CLOUDY    45  30  57 W12       29.98F
MENOMINEE      PTSUNNY   46  34  61 W8        30.00S
SAWYER-GWINN   DRIZZLE   41  36  81 W7        29.97F
$$
MIZ001>003-009>011-084-302100-
WESTERN UPPER MICHIGAN

CITY           SKY/WX    TMP DP  RH WIND       PRES   REMARKS
IRON MOUNTAIN  CLOUDY    44  33  65 NW7       29.97F
HOUGHTON       LGT RAIN  40  37  89 NW7       29.97F
COPPER HARBOR    N/A     41  37  86 N5        29.98F
IRONWOOD       CLOUDY    39  36  87 W15       30.01S
$$

ABBREVIATIONS USED IN REMARKS
   TC - TEMPERATURE IN CELSIUS
  WCI - WIND CHILL INDEX
   HX - HEAT INDEX
  VSB - VISIBILITY




USA.gov is the U.S. government's official web portal to all federal, state and local government web resources and services.